Regional Weather Roundup
Issued by NWS Newport/Morehead, NC

Current Version | Previous Version | Graphics & Text | Print | Product List | Glossary Off
Versions: 1 2 3 4 5 6 7 8 9 10 11 12 13 14 15 16 17 18 19 20 21 22 23 24 25 26 27 28 29 30 31 32 33 34 35 36 37 38 39 40 41 42 43 44 45 46 47 48 49 50

000
ASUS42 KMHX 291113
RWRMHX
WEATHER ROUNDUP FOR EASTERN NORTH CAROLINA
NATIONAL WEATHER SERVICE NEWPORT/MOREHEAD CITY NC
700 AM EDT WED MAR 29 2017

NOTE: "FAIR" INDICATES FEW OR NO CLOUDS BELOW 12,000 FEET
WITH NO SIGNIFICANT WEATHER AND/OR OBSTRUCTIONS TO VISIBILITY

NCZ015>017-031-032-045>047-102-103-291200-
NORTH COAST

CITY           SKY/WX    TMP DP  RH WIND       PRES   REMARKS
EDENTON        NOT AVBL
ELIZABETH CITY CLOUDY    57  53  86 N17       30.00R
KITTY HAWK     NOT AVBL
MANTEO         CLOUDY    51  51 100 NE15      30.00R FOG

$$

NCZ045>047-081-094-103-104-291200-
CENTRAL COAST

CITY           SKY/WX    TMP DP  RH WIND       PRES   REMARKS
FRISCO         MOCLDY    59  55  87 VRB7G22   29.97R FOG

$$

NCZ095-097-098-100-101-291200-
SOUTHERN COAST

CITY           SKY/WX    TMP DP  RH WIND       PRES   REMARKS
BEAUFORT       CLOUDY    60  60 100 N5        29.96R
CEDAR ISLAND   NOT AVBL
JACKSONVILLE   MOCLDY    58  58 100 CALM      29.96R
PINEY ISLAND   SUNNY    N/A N/A N/A N6        29.96R
WILMINGTON     MOCLDY    60  58  92 N3        29.97R


$$

NCZ011>013-027>030-043-044-078>080-089-090>093-098-291200-
COASTAL PLAIN

CITY           SKY/WX    TMP DP  RH WIND       PRES   REMARKS
AHOSKIE        NOT AVBL
CLINTON        CLEAR     57  55  90 CALM      30.00R
ELIZABETHTOWN  PTCLDY    60  53  77 CALM      29.99R
GOLDSBORO      CLEAR     57  57 100 N5        29.98R
GREENVILLE     CLEAR     52  52 100 CALM      30.02R FOG
HAVELOCK       MOCLDY    59  57  93 N5        29.98R
KENANSVILLE    CLEAR     55  52  88 N5        29.99R
KINSTON        CLEAR     55  55 100 N3        30.00R
NEW BERN       CLEAR     56  56 100 CALM      29.98R FOG
RICHLANDS      PTCLDY    54  54 100 NW3       29.99R FOG
ROCKY MOUNT    CLEAR     54  54 100 N7        30.01R
WASHINGTON     CLEAR     55  55  99 NE6       30.00R
WHITEVILLE     PTCLDY    57  53  86 CALM      29.98R

$$

AMZ130-135-150-152-154-156-158-170-250-252-270-ANZ085-086-088-633-658-670-291200-
MARINE OBSERVATIONS

STATION/POSITION TIME  TEMP    WIND        PRES    WAVE   SWELL
                       AIR SEA DIR/SP/G            HT/PER HT/PER
                 (UTC) (F)     (DEG/KT/KT) (MB)    (FT/S) (FT/S)
CHESAPEAKE LIGHT NOT AVBL
64 E VA BEACH    1050   47 48   10/ 19/ 23 1014.6    4/10   3/10
DUCK             1048   50 48   20/ 15/ 17 1015.1
2 E DUCK         1100      50                N/A     3/10   2/11
OREGON INLET     1042   50 58   20/ 13/ 18 1014.9
13E OREGON INLT  1048      51                N/A     4/10   3/ 7
HATTERAS CG      1048   59 63   20/ 12/ 15 1014.1
DIAMOND BUOY     1050   63 74   20/ 14/ 16 1013.8    4/ 9   3/ 9
CAPE LOOKOUT     1100   63     360/  8/ 10 1014.2
BEAUFORT LAB     1048   62 62  360/  6/  7 1013.6
30 SE NEW RVR IN 1008   63     340/ 10/ 14 1013.9
30 SE NEW RVR IN 1043      64                N/A     5/11   2/11
27 SE WRIGHTSVLE 1008   66 70  360/ 14/ 21 1012.7
5 SE WRIGHTSVLE  1008   60 59  340/  6/ 10 1013.9
225 S CAPE HAT   1050   71 72  240/ 17/ 21 1013.6    6/10   3/10
41 SE CHARLESTON 1050   67 71  290/ 10/ 14 1014.0    5/11   5/11

$$



USA.gov is the U.S. government's official web portal to all federal, state and local government web resources and services.